Location: Lake Sonoma
(38.7200°N, 123.0564°W)
Time: 12:09:48
(UTC-07:00)

Amateur Radio Satellites - All Passes

Search period start: 27 March 2015 11:39
Search period end: 28 March 2015 11:39
Location: Lake Sonoma, 38.7200°N, 123.0564°W

Satellite Date Start Highest point End Downlink Frequencies (MHz)
Time Altitude Azimuth
HUMSAT D 27 Mar 11:40:29 11:44:44 71° 101° (E) 11:49:00 437.325/437.525
AAUSAT CUBESAT 2 27 Mar 11:43:07 11:45:16 13° 294° (WNW) 11:47:13 437.432
ANTELSAT 27 Mar 11:43:32 11:47:23 32° 264° (W) 11:51:14 437.575/2403.000
Oscar 11 27 Mar 11:49:51 11:53:23 24° 290° (WNW) 11:56:50 145.826/435.025
UWE-3 27 Mar 11:53:20 11:57:18 33° 288° (WNW) 12:01:18 435.000/436.395/437.385
CUBEBUG 2 27 Mar 11:53:37 11:57:23 28° 289° (WNW) 12:01:11 437.445
FUNcube-1 27 Mar 11:55:07 11:59:12 39° 287° (WNW) 12:03:20 145.935
VELOX 1 27 Mar 11:56:18 12:00:41 65° 101° (E) 12:05:03 145.980
AIST 2 27 Mar 11:56:58 12:01:05 52° 117° (ESE) 12:05:18 435.215
HO-68 27 Mar 11:57:11 12:02:11 20° 301° (WNW) 12:06:54 435.675
AISAT 27 Mar 11:59:54 12:04:19 74° 102° (ESE) 12:08:43 437.250
CUBEBUG 1 27 Mar 12:03:32 12:07:27 33° 97° (E) 12:11:24 437.445
ZACube-1 27 Mar 12:07:20 12:11:08 29° 289° (WNW) 12:14:56 437.345
QB50P1 27 Mar 12:09:34 12:13:22 31° 264° (W) 12:17:07 145.935-145.965
DUCHIFAT 1 27 Mar 12:12:53 12:16:36 29° 264° (W) 12:20:16 145.980
VERMONT LUNAR 27 Mar 12:18:22 12:21:17 27° 208° (SSW) 12:24:12 437.305
ESTCUBE 1 27 Mar 12:21:36 12:26:06 63° 101° (E) 12:30:33 437.505/2401.250
TISAT 1 27 Mar 12:22:32 12:23:05 10° 89° (E) 12:23:56 437.305
SPROUT 27 Mar 12:23:03 12:25:08 14° 90° (E) 12:27:26 437.525
QB50P2 27 Mar 12:24:11 12:27:29 21° 266° (W) 12:30:42 145.880/145.840
BEESAT 2 27 Mar 12:37:42 12:40:58 22° 312° (NW) 12:44:12 435.950
PHONESAT 2.4 27 Mar 12:39:36 12:43:00 42° 204° (SSW) 12:46:23 2401.200-2431.200
50 SAT 27 Mar 12:53:50 12:57:06 23° 290° (WNW) 13:00:18 437.505
UKube-1 27 Mar 12:56:39 12:58:44 13° 295° (WNW) 13:00:36 .
DX 1 27 Mar 13:05:00 13:05:49 10° 296° (WNW) 13:06:22 434.975-435.025
Oscar 19 27 Mar 13:21:11 13:25:55 41° 71° (ENE) 13:30:44 437.125/150
Gurwin Techsat 1B 27 Mar 13:22:16 13:23:31 11° 61° (ENE) 13:25:07 435.225
VELOX 1 27 Mar 13:35:08 13:36:46 12° 296° (WNW) 13:38:11 145.980
AIST 2 27 Mar 13:37:08 13:40:03 17° 315° (NW) 13:42:52 435.215
AISAT 27 Mar 13:39:41 13:40:24 10° 296° (WNW) 13:40:52 437.250
SWISSCUBE 27 Mar 13:40:21 13:42:50 14° 90° (E) 13:45:33 437.505
CUBEBUG 1 27 Mar 13:40:26 13:43:38 20° 292° (WNW) 13:46:43 437.445
BEESAT 27 Mar 13:43:44 13:46:12 14° 90° (E) 13:48:55 436.000
YUBILEINY 27 Mar 13:49:19 13:57:15 41° 88° (E) 14:05:22 435.215
TISAT 1 27 Mar 13:55:13 13:59:21 58° 285° (WNW) 14:03:27 437.305
SPROUT 27 Mar 13:57:26 14:01:33 46° 286° (WNW) 14:05:38 437.525
ESTCUBE 1 27 Mar 14:00:29 14:02:30 13° 295° (WNW) 14:04:18 437.505/2401.250
ITAMSAT 1 27 Mar 14:21:27 14:26:28 51° 72° (ENE) 14:31:33 435.822/435.867
ITUPSAT 1 27 Mar 14:27:37 14:32:09 41° 98° (E) 14:36:40 437.325
O/OREOS (USA 219) 27 Mar 14:34:29 14:38:47 40° 63° (ENE) 14:43:03 437.305
PCSat 27 Mar 14:38:45 14:42:28 20° 107° (ESE) 14:46:23 145.827
AO-7 27 Mar 14:52:49 14:59:05 26° 58° (ENE) 15:05:37 29.400- 29.500
Gurwin Techsat 1B 27 Mar 14:57:29 15:02:48 87° 76° (ENE) 15:08:10 435.225
Oscar 19 27 Mar 15:01:32 15:05:29 22° 267° (W) 15:09:18 437.125/150
STARS 27 Mar 15:05:34 15:06:40 11° 89° (E) 15:08:04 437.465
SWISSCUBE 27 Mar 15:16:26 15:21:07 54° 287° (WNW) 15:25:45 437.505
BEESAT 27 Mar 15:19:47 15:24:28 54° 287° (WNW) 15:29:07 436.000
HORYU 2 27 Mar 15:35:00 15:39:13 46° 73° (ENE) 15:43:30 437.375
YUBILEINY 27 Mar 15:45:50 15:54:05 42° 287° (WNW) 16:02:18 435.215
JAS-2 27 Mar 15:47:32 15:53:35 36° 66° (ENE) 16:00:21 435.910
KKS-1 27 Mar 16:02:12 16:06:41 82° 105° (ESE) 16:11:08 437.445
ITAMSAT 1 27 Mar 16:02:41 16:06:20 18° 269° (W) 16:09:46 435.822/435.867
ITUPSAT 1 27 Mar 16:06:15 16:09:47 20° 293° (WNW) 16:13:11 437.325
O/OREOS (USA 219) 27 Mar 16:14:49 16:17:55 18° 259° (WSW) 16:20:50 437.305
PCSat 27 Mar 16:20:14 16:25:31 53° 302° (WNW) 16:30:50 145.827
AIST 1 27 Mar 16:21:33 16:25:53 77° 264° (W) 16:30:08
JUGNU 27 Mar 16:25:10 16:26:57 11° 176° (S) 16:28:46 437.505
STARS 27 Mar 16:39:17 16:43:37 60° 286° (WNW) 16:47:57 437.465
AO-7 27 Mar 16:42:57 16:51:15 73° 255° (WSW) 16:59:34 29.400- 29.500
HORYU 2 27 Mar 17:13:37 17:16:12 15° 269° (W) 17:18:35 437.375
MOZHAYETS 4 27 Mar 17:22:28 17:26:38 33° 96° (E) 17:30:50
JAS-2 27 Mar 17:32:11 17:38:30 42° 265° (W) 17:45:28 435.910
AUBIESAT-1 27 Mar 17:34:49 17:37:19 15° 94° (E) 17:40:02 437.475
RS-15 27 Mar 17:54:51 17:59:31 15° 100° (E) 18:05:10 29.354- 29.394
M-CUBED/EXP-1 PRIME 27 Mar 17:56:13 18:00:20 28° 99° (E) 18:04:28 437.505
Cubesat XI-IV 27 Mar 18:06:24 18:11:20 40° 70° (ENE) 18:16:22 437.490
CUTE-I 27 Mar 18:06:49 18:11:46 40° 70° (ENE) 18:16:47 437.470
JUGNU 27 Mar 18:13:45 18:15:06 11° 186° (S) 18:16:24 437.505
SO-50 27 Mar 18:42:17 18:44:36 14° 109° (ESE) 18:47:11 436.795
AO-7 27 Mar 18:42:41 18:45:40 12° 275° (W) 18:47:52 29.400- 29.500
MOZHAYETS 4 27 Mar 19:00:00 19:03:44 23° 291° (WNW) 19:07:20
CUBESAT XI-V 27 Mar 19:04:01 19:08:02 29° 95° (E) 19:12:05 437.345
STRAND 1 27 Mar 19:04:36 19:07:38 16° 91° (E) 19:10:53 437.568
PRISM 27 Mar 19:07:16 19:10:35 23° 95° (E) 19:13:57 437.425
AUBIESAT-1 27 Mar 19:07:46 19:12:33 60° 291° (WNW) 19:17:14 437.475
SRMSAT 27 Mar 19:08:37 19:10:32 12° 182° (S) 19:12:26 437.500
BEESAT 2 27 Mar 19:20:13 19:22:59 17° 45° (NE) 19:25:50 435.950
M-CUBED/EXP-1 PRIME 27 Mar 19:30:51 19:35:11 32° 295° (WNW) 19:39:25 437.505
Cubesat XI-IV 27 Mar 19:47:14 19:51:37 24° 266° (W) 19:55:52 437.490
CUTE-I 27 Mar 19:47:38 19:52:00 24° 266° (W) 19:56:16 437.470
BEESAT 3 27 Mar 19:58:52 20:02:51 46° 55° (NE) 20:06:46 437.485
RS-15 27 Mar 19:59:27 20:10:16 76° 117° (ESE) 20:21:18 29.354- 29.394
GONETS M04 27 Mar 20:02:06 20:10:36 64° 93° (E) 20:19:12
BRITE-PL 27 Mar 20:02:13 20:06:08 26° 71° (ENE) 20:09:54 437.365/2234.400
CANX-2 27 Mar 20:10:48 20:13:32 17° 68° (ENE) 20:16:24 2200.000
SO-50 27 Mar 20:20:06 20:24:40 60° 305° (NW) 20:29:24 436.795
AIST 2 27 Mar 20:20:25 20:23:56 25° 49° (NE) 20:27:27 435.215
CUTE 1.7 + AOD 2 27 Mar 20:24:29 20:27:42 22° 70° (ENE) 20:31:03 437.475
HO-68 27 Mar 20:34:44 20:41:35 52° 69° (ENE) 20:48:32 435.675
CUBESAT XI-V 27 Mar 20:41:34 20:45:25 25° 290° (WNW) 20:49:08 437.345
STRAND 1 27 Mar 20:42:15 20:47:15 54° 287° (WNW) 20:52:11 437.568
PRISM 27 Mar 20:42:31 20:46:04 26° 290° (WNW) 20:49:30 437.425
CINEMA 3 27 Mar 20:50:53 20:53:36 17° 68° (ENE) 20:56:25 145.822/145.860
SEEDS 27 Mar 20:55:45 20:59:41 41° 73° (ENE) 21:03:41 437.485
AAUSAT CUBESAT 2 27 Mar 20:55:52 20:59:26 29° 71° (ENE) 21:03:06 437.432
DOVE 4 27 Mar 20:56:06 21:00:12 40° 73° (ENE) 21:04:11 437.250
BEESAT 2 27 Mar 20:57:27 21:01:26 47° 243° (WSW) 21:05:20 435.950
GOMX 1 27 Mar 20:57:57 21:02:30 66° 76° (ENE) 21:06:48 467.674
Oscar 11 27 Mar 21:07:46 21:10:48 20° 68° (ENE) 21:13:59 145.826/435.025
UWE-3 27 Mar 21:14:57 21:17:00 14° 67° (ENE) 21:19:15 435.000/436.395/437.385
CUBEBUG 2 27 Mar 21:15:23 21:18:02 17° 68° (ENE) 21:20:50 437.445
FUNcube-1 27 Mar 21:16:35 21:17:44 11° 66° (ENE) 21:19:08 145.935
COMPASS 1 27 Mar 21:20:50 21:24:57 67° 76° (ENE) 21:29:09 437.405
ZACube-1 27 Mar 21:27:24 21:29:47 16° 68° (ENE) 21:32:21 437.345
BEESAT 3 27 Mar 21:38:12 21:40:33 15° 250° (WSW) 21:42:44 437.485
BRITE-PL 27 Mar 21:40:25 21:44:37 28° 264° (W) 21:48:31 437.365/2234.400
CANX-2 27 Mar 21:45:16 21:49:13 37° 263° (W) 21:53:11 2200.000
CUSAT 1 27 Mar 21:51:20 21:54:24 77° 281° (W) 21:57:04 437.405
AIST 2 27 Mar 21:58:48 22:02:34 31° 246° (WSW) 22:06:13 435.215
CUTE 1.7 + AOD 2 27 Mar 21:59:49 22:03:31 28° 265° (W) 22:07:11 437.475
GONETS M04 27 Mar 22:01:02 22:08:11 27° 293° (WNW) 22:15:07
50 SAT 27 Mar 22:05:33 22:07:14 13° 67° (ENE) 22:09:05 437.505
UKube-1 27 Mar 22:12:24 22:16:26 40° 72° (ENE) 22:20:31 .
RS-15 27 Mar 22:14:08 22:23:51 34° 322° (NW) 22:33:36 29.354- 29.394
DX 1 27 Mar 22:19:57 22:24:11 52° 73° (ENE) 22:28:27 434.975-435.025
DELFI C3 27 Mar 22:21:29 22:25:32 78° 258° (WSW) 22:29:38 145.870
HO-68 27 Mar 22:23:35 22:29:39 28° 266° (W) 22:35:35 435.675
CINEMA 3 27 Mar 22:26:42 22:30:37 35° 263° (W) 22:34:27 145.822/145.860
DANDE 27 Mar 22:29:49 22:32:45 28° 281° (W) 22:35:15 436.750
HUMSAT D 27 Mar 22:31:21 22:35:10 40° 73° (ENE) 22:39:02 437.325/437.525
AAUSAT CUBESAT 2 27 Mar 22:31:54 22:35:08 21° 267° (W) 22:38:16 437.432
SEEDS 27 Mar 22:33:15 22:35:46 15° 269° (W) 22:38:06 437.485
DOVE 4 27 Mar 22:35:26 22:38:12 16° 268° (W) 22:40:44 437.250
Oscar 11 27 Mar 22:42:51 22:46:48 34° 263° (W) 22:50:44 145.826/435.025
UWE-3 27 Mar 22:49:14 22:53:14 45° 261° (W) 22:57:13 435.000/436.395/437.385
FUNcube-1 27 Mar 22:49:35 22:53:39 57° 260° (W) 22:57:45 145.935
CUBEBUG 2 27 Mar 22:50:42 22:54:32 35° 263° (W) 22:58:21 437.445
VELOX 1 27 Mar 22:52:37 22:56:54 49° 73° (ENE) 23:01:13 145.980
UNISAT 6 27 Mar 22:56:25 22:59:44 20° 93° (E) 23:03:14 437.425
AISAT 27 Mar 22:56:26 23:00:46 56° 74° (ENE) 23:05:09 437.250
CUBEBUG 1 27 Mar 22:58:45 23:02:21 25° 70° (ENE) 23:06:01 437.445
ZACube-1 27 Mar 23:01:59 23:05:54 40° 262° (W) 23:09:49 437.345
POPSAT HIP 1 27 Mar 23:05:52 23:06:49 11° 89° (E) 23:08:04 437.405
TIGRISAT 27 Mar 23:07:12 23:10:57 25° 95° (E) 23:14:50 435.000
NANOSAT C BR1 27 Mar 23:16:02 23:18:22 15° 91° (E) 23:20:53 145.865
POLYITAN 1 27 Mar 23:18:22 23:21:00 16° 92° (E) 23:23:46 437.675
ESTCUBE 1 27 Mar 23:19:52 23:24:15 49° 73° (ENE) 23:28:40 437.505/2401.250
ISS 27 Mar 23:21:30 23:24:30 36° 136° (SE) 23:27:32 145.825
PCSat 27 Mar 23:27:30 23:30:29 15° 43° (NE) 23:33:39 145.827
ANTELSAT 27 Mar 23:36:01 23:40:30 54° 100° (E) 23:45:04 437.575/2403.000
50 SAT 27 Mar 23:38:04 23:41:48 44° 261° (W) 23:45:35 437.505
UKube-1 27 Mar 23:49:57 23:52:49 17° 268° (W) 23:55:31 .
QB50P1 27 Mar 23:55:40 23:59:42 43° 99° (E) 00:03:45 145.935-145.965
DUCHIFAT 1 27 Mar 23:58:32 00:02:35 45° 99° (E) 00:06:39 145.980
DX 1 27 Mar 23:58:42 00:00:49 13° 270° (W) 00:02:41 434.975-435.025
YUBILEINY 28 Mar 00:01:59 00:07:27 18° 61° (ENE) 00:13:22 435.215
HUMSAT D 28 Mar 00:08:53 00:11:12 14° 269° (W) 00:13:21 437.325/437.525
QB50P2 28 Mar 00:09:44 00:13:57 66° 101° (E) 00:18:10 145.880/145.840
VELOX 1 28 Mar 00:31:21 00:33:49 14° 269° (W) 00:36:04 145.980
UNISAT 6 28 Mar 00:32:27 00:36:39 37° 288° (WNW) 00:40:54 437.425
RS-15 28 Mar 00:34:26 00:41:08 17° 356° (N) 00:47:54 29.354- 29.394
CUBEBUG 1 28 Mar 00:34:51 00:38:40 27° 265° (W) 00:42:23 437.445
AISAT 28 Mar 00:35:51 00:37:48 12° 270° (W) 00:39:30 437.250
POPSAT HIP 1 28 Mar 00:39:00 00:43:09 57° 285° (WNW) 00:47:17 437.405
TIGRISAT 28 Mar 00:43:45 00:47:42 29° 289° (WNW) 00:51:39 435.000
TISAT 1 28 Mar 00:45:53 00:50:07 86° 77° (ENE) 00:54:21 437.305
SWISSCUBE 28 Mar 00:46:04 00:48:49 16° 65° (ENE) 00:51:46 437.505
BUGSAT 1 28 Mar 00:47:32 00:51:33 62° 284° (WNW) 00:55:30 437.445
BEESAT 28 Mar 00:49:23 00:52:06 16° 65° (ENE) 00:55:00 436.000
SPROUT 28 Mar 00:49:55 00:54:13 73° 258° (WSW) 00:58:31 437.525
NANOSAT C BR1 28 Mar 00:50:29 00:54:29 41° 287° (WNW) 00:58:27 145.865
POLYITAN 1 28 Mar 00:53:10 00:57:07 38° 288° (WNW) 01:01:03 437.675
ISS 28 Mar 00:58:11 01:00:59 25° 332° (NNW) 01:03:45 145.825
ESTCUBE 1 28 Mar 00:58:48 01:01:27 15° 270° (W) 01:03:55 437.505/2401.250
PCSat 28 Mar 01:09:17 01:14:44 89° 251° (WSW) 01:20:10 145.827
ANTELSAT 28 Mar 01:14:17 01:16:56 15° 294° (WNW) 01:19:23 437.575/2403.000
QB50P1 28 Mar 01:32:44 01:35:16 15° 293° (WNW) 01:37:39 145.935-145.965
ITUPSAT 1 28 Mar 01:33:08 01:37:38 42° 72° (ENE) 01:42:11 437.325
Oscar 19 28 Mar 01:35:09 01:38:12 16° 90° (E) 01:41:29 437.125/150
DUCHIFAT 1 28 Mar 01:35:43 01:38:06 14° 293° (WNW) 01:40:18 145.980
QB50P2 28 Mar 01:48:24 01:49:23 11° 295° (WNW) 01:50:07 145.880/145.840
YUBILEINY 28 Mar 01:56:50 02:05:44 88° 262° (W) 02:14:30 435.215
SWISSCUBE 28 Mar 02:21:33 02:26:17 55° 260° (W) 02:31:01 437.505
BEESAT 28 Mar 02:24:51 02:29:32 55° 259° (W) 02:34:16 436.000
ITAMSAT 1 28 Mar 02:36:34 02:40:13 20° 92° (E) 02:44:01 435.822/435.867
RS-15 28 Mar 02:49:55 02:59:02 27° 31° (NNE) 03:08:44 29.354- 29.394
PCSat 28 Mar 02:56:48 02:57:29 10° 257° (WSW) 02:57:46 145.827
KKS-1 28 Mar 02:58:59 03:03:22 62° 74° (ENE) 03:07:45 437.445
ITUPSAT 1 28 Mar 03:12:14 03:15:45 19° 268° (W) 03:19:07 437.325
Oscar 19 28 Mar 03:12:54 03:17:59 56° 287° (WNW) 03:23:02 437.125/150
SO-50 28 Mar 03:13:53 03:16:20 14° 39° (NE) 03:18:57 436.795
Gurwin Techsat 1B 28 Mar 03:15:19 03:20:15 39° 97° (E) 03:25:12 435.225
STARS 28 Mar 03:34:43 03:39:06 82° 257° (WSW) 03:43:30 437.465
YUBILEINY 28 Mar 03:56:21 04:01:27 16° 281° (W) 04:05:57 435.215
ITAMSAT 1 28 Mar 04:15:03 04:20:00 46° 289° (WNW) 04:24:54 435.822/435.867
ISS 28 Mar 04:15:20 04:15:54 10° 11° (NNE) 04:16:31 145.825
AUBIESAT-1 28 Mar 04:22:27 04:24:27 14° 59° (ENE) 04:26:42 437.475
MOZHAYETS 4 28 Mar 04:23:24 04:27:14 27° 70° (ENE) 04:31:10
KKS-1 28 Mar 04:39:14 04:40:31 11° 271° (W) 04:41:29 437.445
JAS-2 28 Mar 04:43:09 04:50:11 38° 93° (E) 04:56:48 435.910
M-CUBED/EXP-1 PRIME 28 Mar 04:44:04 04:47:21 26° 64° (ENE) 04:50:57 437.505
O/OREOS (USA 219) 28 Mar 04:44:58 04:49:29 62° 108° (ESE) 04:54:03 437.305
AO-7 28 Mar 04:46:13 04:53:56 43° 99° (E) 05:01:45 29.400- 29.500
AIST 1 28 Mar 04:49:17 04:53:39 67° 95° (E) 04:58:02
SO-50 28 Mar 04:52:43 04:57:42 84° 57° (ENE) 05:02:37 436.795
Gurwin Techsat 1B 28 Mar 04:55:43 05:00:04 25° 293° (WNW) 05:04:17 435.225
RS-15 28 Mar 05:02:06 05:13:40 80° 58° (ENE) 05:25:46 29.354- 29.394
HORYU 2 28 Mar 05:03:54 05:08:24 70° 285° (WNW) 05:12:52 437.375
ISS 28 Mar 05:50:11 05:53:07 31° 31° (NNE) 05:56:04 145.825
AUBIESAT-1 28 Mar 05:54:58 05:58:47 53° 256° (WSW) 06:02:59 437.475
PRISM 28 Mar 05:57:14 05:59:44 16° 67° (ENE) 06:02:24 437.425
MOZHAYETS 4 28 Mar 06:00:26 06:04:25 28° 265° (W) 06:08:22
CUBESAT XI-V 28 Mar 06:06:20 06:10:10 26° 70° (ENE) 06:14:07 437.345
GONETS M04 28 Mar 06:14:27 06:21:46 29° 68° (ENE) 06:29:20
M-CUBED/EXP-1 PRIME 28 Mar 06:18:57 06:22:14 24° 262° (W) 06:25:41 437.505
STRAND 1 28 Mar 06:19:04 06:22:53 22° 66° (ENE) 06:26:51 437.568
Cubesat XI-IV 28 Mar 06:26:03 06:29:24 17° 91° (E) 06:32:58 437.490
CUTE-I 28 Mar 06:26:19 06:29:38 17° 91° (E) 06:33:11 437.470
O/OREOS (USA 219) 28 Mar 06:26:54 06:29:25 14° 307° (NW) 06:31:46 437.305
JAS-2 28 Mar 06:28:00 06:35:17 44° 292° (WNW) 06:41:59 435.910
SO-50 28 Mar 06:36:26 06:37:40 11° 252° (WSW) 06:38:34 436.795
VERMONT LUNAR 28 Mar 06:37:01 06:40:13 45° 157° (SSE) 06:43:27 437.305
AO-7 28 Mar 06:39:05 06:46:45 42° 297° (WNW) 06:54:18 29.400- 29.500
PHONESAT 2.4 28 Mar 07:05:48 07:09:01 34° 154° (SSE) 07:12:16 2401.200-2431.200
RS-15 28 Mar 07:15:56 07:25:14 27° 255° (WSW) 07:34:15 29.354- 29.394
ISS 28 Mar 07:26:43 07:29:27 25° 227° (SW) 07:32:09 145.825
PRISM 28 Mar 07:30:55 07:34:55 42° 261° (W) 07:38:56 437.425
CUBESAT XI-V 28 Mar 07:43:22 07:47:32 30° 265° (W) 07:51:40 437.345
STRAND 1 28 Mar 07:56:57 08:01:50 43° 261° (W) 08:06:44 437.568
Cubesat XI-IV 28 Mar 08:04:43 08:09:55 54° 288° (WNW) 08:15:05 437.490
CUTE-I 28 Mar 08:04:56 08:10:08 55° 288° (WNW) 08:15:18 437.470
GONETS M04 28 Mar 08:10:35 08:19:12 59° 268° (W) 08:27:46
VERMONT LUNAR 28 Mar 08:14:34 08:17:54 67° 353° (N) 08:21:16 437.305
CUSAT 1 28 Mar 08:26:39 08:30:49 58° 81° (E) 08:36:25 437.405
PHONESAT 2.4 28 Mar 08:43:43 08:47:15 78° 351° (N) 08:50:48 2401.200-2431.200
DOVE 4 28 Mar 08:58:02 08:59:21 11° 90° (E) 09:00:57 437.250
GOMX 1 28 Mar 09:01:28 09:04:30 19° 93° (E) 09:07:46 467.674
COMPASS 1 28 Mar 09:07:50 09:09:26 12° 89° (E) 09:11:18 437.405
DANDE 28 Mar 09:08:00 09:11:58 68° 261° (W) 09:17:19 436.750
CANX-2 28 Mar 09:31:46 09:35:49 39° 97° (E) 09:39:52 2200.000
BRITE-PL 28 Mar 09:45:23 09:49:35 84° 283° (WNW) 09:53:58 437.365/2234.400
CUTE 1.7 + AOD 2 28 Mar 09:45:47 09:50:00 51° 99° (E) 09:54:12 437.475
HO-68 28 Mar 09:51:05 09:58:13 62° 102° (ESE) 10:05:20 435.675
VERMONT LUNAR 28 Mar 09:52:25 09:55:47 74° 9° (N) 09:59:09 437.305
BEESAT 3 28 Mar 09:53:41 09:55:01 12° 109° (ESE) 09:56:33 437.485
UNISAT 6 28 Mar 09:55:34 09:57:51 15° 66° (ENE) 10:00:21 437.425
DELFI C3 28 Mar 10:03:51 10:06:20 16° 91° (E) 10:08:58 145.870
TIGRISAT 28 Mar 10:05:47 10:08:40 18° 68° (ENE) 10:11:41 435.000
NANOSAT C BR1 28 Mar 10:09:51 10:10:16 10° 65° (ENE) 10:10:57 145.865
CUSAT 1 28 Mar 10:11:35 10:13:40 12° 265° (W) 10:15:39 437.405
POLYITAN 1 28 Mar 10:12:04 10:13:18 11° 65° (ENE) 10:14:46 437.675
AAUSAT CUBESAT 2 28 Mar 10:15:11 10:19:24 66° 101° (E) 10:23:36 437.432
SEEDS 28 Mar 10:16:53 10:21:12 82° 283° (WNW) 10:25:28 437.485
CINEMA 3 28 Mar 10:21:54 10:26:13 53° 100° (E) 10:30:44 145.822/145.860
PHONESAT 2.4 28 Mar 10:22:14 10:25:45 67° 6° (N) 10:29:18 2401.200-2431.200
Oscar 11 28 Mar 10:31:08 10:35:20 45° 98° (E) 10:39:31 145.826/435.025
DOVE 4 28 Mar 10:33:16 10:37:30 57° 285° (WNW) 10:41:57 437.250
ANTELSAT 28 Mar 10:34:12 10:38:09 39° 72° (ENE) 10:42:10 437.575/2403.000
GOMX 1 28 Mar 10:38:56 10:42:46 33° 288° (WNW) 10:46:43 467.674
FUNcube-1 28 Mar 10:39:20 10:43:06 28° 95° (E) 10:47:00 145.935
UWE-3 28 Mar 10:40:04 10:44:08 37° 97° (E) 10:48:20 435.000/436.395/437.385
COMPASS 1 28 Mar 10:41:23 10:45:32 51° 286° (WNW) 10:49:38 437.405
CUBEBUG 2 28 Mar 10:42:18 10:46:34 48° 99° (E) 10:51:00 437.445
QB50P1 28 Mar 10:47:32 10:51:07 28° 71° (ENE) 10:54:46 145.935-145.965
DUCHIFAT 1 28 Mar 10:50:05 10:53:42 29° 71° (ENE) 10:57:23 145.980
BEESAT 2 28 Mar 10:50:11 10:54:04 43° 116° (ESE) 10:58:03 435.950
AISAT 28 Mar 10:50:55 10:52:20 12° 89° (E) 10:54:01 437.250
ZACube-1 28 Mar 10:51:28 10:55:35 39° 98° (E) 10:59:48 437.345
QB50P2 28 Mar 11:01:30 11:05:27 41° 73° (ENE) 11:09:27 145.880/145.840
CANX-2 28 Mar 11:08:34 11:11:29 17° 292° (WNW) 11:14:16 2200.000
ESTCUBE 1 28 Mar 11:16:28 11:17:42 11° 88° (E) 11:19:13 437.505/2401.250
50 SAT 28 Mar 11:17:34 11:20:49 23° 95° (E) 11:24:07 437.505
CUTE 1.7 + AOD 2 28 Mar 11:23:18 11:25:33 14° 294° (WNW) 11:27:36 437.475
BEESAT 3 28 Mar 11:28:36 11:32:38 58° 304° (WNW) 11:36:43 437.485
UNISAT 6 28 Mar 11:30:13 11:34:19 45° 261° (W) 11:38:27 437.425
VERMONT LUNAR 28 Mar 11:30:16 11:33:24 36° 205° (SSW) 11:36:33 437.305
POPSAT HIP 1 28 Mar 11:30:17 11:34:30 89° 78° (ENE) 11:38:45 437.405
